Weather in But-Kazmalyar

Russia / Republic of Dagestan     41°42′12″N   48°23′56″E
temp.,
°C
wind,
m/s
gust,
m/s
humid.,
%
clouds,
%
prec.,
mm/h
press.,
hPa
HPBL,
m
17 april, sat
sat1700:00+11s22685 0.0 102010
03:00+10s11692 0.0 101910
06:00+12s226421 0.0 102017
09:00+19ese334755 0.0 1018452
12:00+22ese4444100 0.0 1017686
15:00+19ne325029 0.0 1016310
18:00+12nnw477716 0.0 1018192
21:00+12wnw3476100 0.0 101961
18 april, sun
sun1800:00+12nw337678 0.1 101833
03:00+11nnw227598 0.1 101824
06:00+12w268099 0.0 1020210
09:00+17n4463100 0.0 1019572
12:00+17nne4360100 0.0 1017573
15:00+17n44515 0.0 1016528
18:00+13n3762100 0.0 1018157
21:00+13nw2254100 0.0 101824
19 april, mon
mon1900:00+12w2263100 0.0 101817
03:00+12ese1170100 0.0 101711
06:00+12wsw2264100 0.0 101854
09:00+18ene224786 0.0 1018522
12:00+20ene434598 0.0 1017750
15:00+20ese434635 0.0 1016564
18:00+15ese346529 0.0 1016112
21:00+13sse22665 0.0 101623
20 april, tue
tue2000:00+12sse22665 0.0 101511
03:00+11sw1167100 0.0 101510
06:00+13s1167100 0.0 101413
09:00+19se3554100 0.0 1012534
12:00+20e445435 0.0 1010519
15:00+21ene32545 0.0 1007282
18:00+14nnw3476100 0.0 1006113
21:00+13nw3579100 0.0 1007100
21 april, wed
wed2100:00+12nw358177 0.0 100786
03:00+12nw61381100 0.0 1010394
06:00+14nw716755 0.0 1014897
09:00+17nnw8136653 0.0 10161009
12:00+19nnw8116237 0.0 10171057
15:00+18nnw596412 0.0 1017789
18:00+16nw4973100 0.1 1019498
21:00+13nnw12828 0.1 101960